Vorticity
7 4 6 8 5 7 7 9 9 9 4 10 13 5 7 5 6 18 5 12 10 12 7 10 12 10 10 10 14 15 16 11 15 23 11 7 11 8 7 5 4 5 8 3
8 3 9 10 11 11 12 7 12 13 10 6 7 5 18 19 22 -5 13 6 13 9 5 11 3 -5 11 12 20 20 23 22 16 24 15 8 13 9 7 6 7 8 6 5
-3 18 11 9 9 8 8 3 5 4 5 26 5 49 2 17 3 16 6 11 -2 6 10 6 8 12 13 11 25 27 23 17 36 26 27 14 10 14 13 8 7 1 5 4
8 14 6 3 6 6 9 4 8 8 11 10 -17 2 10 2 12 9 12 2 2 5 6 11 8 -1 7 6 16 25 19 37 31 30 8 15 13 11 13 6 1 4 -1 2
11 6 7 4 7 10 3 5 7 4 8 11 21 6 7 12 12 -0 -9 5 18 18 24 15 4 15 10 8 9 4 28 23 17 10 10 15 10 12 14 1 6 3 8 -1
8 9 5 7 10 11 5 8 18 22 11 15 21 -4 7 9 -12 -1 6 18 12 15 16 14 16 16 14 8 8 7 2 3 5 8 15 7 5 7 7 9 7 1 0 17
7 10 12 13 5 11 8 13 12 10 7 3 8 14 -4 -4 5 14 26 17 5 8 12 9 6 6 4 20 13 8 4 2 3 6 4 8 8 7 0 7 10 32 18 25
6 7 0 12 2 14 5 8 9 10 10 -17 9 12 13 -4 -1 15 14 14 11 10 9 3 -0 22 18 7 17 14 9 10 7 -1 1 -3 -3 -13 26 16 49 52 29 24
3 11 11 -0 6 10 7 8 5 5 25 9 8 16 15 -5 15 15 13 18 18 14 19 29 13 3 22 19 22 25 19 11 14 18 19 28 29 29 8 43 1 2 4 4
23 8 3 3 2 9 7 7 4 12 9 14 15 9 -10 8 23 14 17 15 11 10 20 14 24 33 25 26 18 23 20 20 20 49 27 25 15 31 41 14 3 3 7 10
5 11 13 3 12 11 8 14 13 9 9 2 9 14 -11 11 17 19 15 18 27 22 18 23 5 1 -2 -1 0 4 -2 1 2 0 -1 3 2 2 2 4 4 3 4 6
9 9 8 5 4 6 2 4 3 9 14 2 4 12 -5 11 9 10 16 11 11 7 2 6 6 5 11 5 2 3 4 6 6 6 6 6 6 6 6 6 6 6 6 6
8 11 12 15 15 23 15 21 1 7 17 21 5 4 -5 9 7 8 7 5 5 6 2 2 1 2 2 3 3 5 5 5 5 6 7 7 8 8 8 9 8 8 9 9
13 7 2 -13 -5 -4 -0 15 8 2 8 -8 -10 -13 10 9 7 4 4 4 3 3 3 2 2 2 4 5 5 6 6 5 6 6 7 7 7 7 7 7 6 6 6 6
10 12 4 7 7 10 6 6 5 2 -1 5 -35 -3 3 9 9 5 4 4 4 4 3 3 3 4 5 5 5 7 5 5 6 6 7 8 8 8 8 7 7 8 8 8
8 1 5 8 28 22 12 11 12 7 3 -0 8 6 27 14 4 8 8 5 5 4 5 6 6 6 6 6 6 6 6 6 7 9 9 9 8 7 6 6 6 6 6 6
11 6 7 18 -1 6 48 59 41 17 10 12 2 17 -1 6 9 12 8 6 7 6 6 6 5 6 7 7 7 7 7 8 8 8 7 6 5 5 5 5 5 6 7 8
-1 8 17 1 35 17 2 7 4 3 8 14 9 4 7 6 6 11 10 9 8 8 7 7 6 7 8 7 7 7 7 7 7 8 7 6 6 7 7 7 8 9 10 11
17 4 5 2 -2 -19 63 44 29 19 13 21 15 14 10 12 9 14 15 11 9 8 9 9 8 8 8 8 8 7 7 7 7 6 5 5 5 5 6 7 9 10 10 6
14 17 -14 9 10 3 -3 3 1 9 26 31 17 17 18 17 11 14 9 13 11 10 8 8 9 9 8 9 8 8 7 8 7 6 6 7 9 10 11 11 10 7 9 14
14 21 7 6 -7 15 5 19 5 14 5 -8 -15 15 11 13 8 10 9 10 10 10 10 9 7 7 8 8 9 8 7 6 6 6 6 7 9 8 6 9 13 13 12 15
0 14 4 27 11 15 18 15 5 -6 -14 -11 6 22 12 9 12 10 10 9 8 8 8 8 9 9 9 9 8 8 6 6 4 3 7 11 6 9 14 11 13 17 13 11
20 3 -15 -24 -14 -32 -28 -19 -16 -3 12 12 19 9 -2 -1 7 6 8 8 8 8 8 8 9 10 9 7 7 6 5 3 7 11 12 4 13 11 11 17 13 13 10 11
13 15 -6 10 27 15 8 2 0 1 1 4 8 18 18 13 5 6 9 8 9 8 8 8 9 8 8 9 6 5 5 8 12 10 7 14 9 14 16 14 11 11 14 12
-7 3 6 4 14 39 20 18 17 25 21 4 -4 5 10 28 12 9 9 9 8 7 7 9 8 8 10 6 5 5 7 11 8 10 13 8 15 16 14 11 14 14 10 14
39 24 24 20 2 7 6 15 14 12 8 14 13 11 9 19 15 8 9 9 7 7 10 9 9 9 7 5 4 6 9 9 12 10 9 14 17 13 11 13 12 15 10 9
Height
3081 3084 3086 3087 3089 3090 3091 3092 3092 3091 3090 3090 3088 3086 3085 3084 3082 3080 3078 3076 3073 3070 3068 3064 3063 3060 3057 3055 3053 3052 3052 3053 3052 3054 3059 3064 3070 3074 3078 3081 3084 3086 3087 3088
3083 3083 3085 3086 3087 3088 3089 3089 3090 3089 3088 3087 3085 3081 3079 3078 3075 3075 3074 3072 3069 3066 3063 3061 3059 3056 3051 3048 3045 3043 3041 3041 3042 3046 3049 3058 3063 3067 3069 3073 3078 3080 3081 3081
3083 3084 3085 3085 3086 3088 3088 3088 3088 3088 3086 3084 3082 3077 3074 3073 3073 3072 3071 3068 3065 3062 3059 3057 3055 3051 3046 3041 3038 3034 3031 3032 3033 3038 3045 3051 3057 3062 3066 3067 3071 3073 3073 3072
3082 3083 3083 3085 3086 3087 3086 3085 3085 3086 3086 3087 3084 3080 3075 3073 3071 3069 3067 3062 3060 3058 3054 3052 3050 3046 3043 3039 3034 3029 3026 3026 3028 3033 3041 3046 3052 3054 3058 3061 3063 3064 3065 3064
3082 3082 3083 3084 3085 3085 3086 3084 3084 3085 3085 3084 3082 3082 3073 3071 3070 3069 3064 3060 3056 3052 3049 3048 3046 3043 3039 3037 3035 3032 3029 3028 3031 3036 3040 3042 3044 3047 3051 3054 3056 3056 3056 3055
3081 3081 3083 3083 3083 3083 3084 3084 3082 3083 3085 3083 3079 3081 3072 3070 3066 3064 3059 3055 3051 3049 3045 3043 3042 3040 3037 3035 3034 3032 3032 3031 3031 3032 3035 3037 3040 3042 3045 3047 3048 3048 3047 3046
3081 3082 3083 3083 3083 3083 3083 3083 3085 3085 3083 3078 3079 3078 3068 3067 3063 3058 3052 3049 3047 3045 3043 3042 3040 3039 3037 3034 3032 3031 3031 3031 3031 3032 3033 3034 3036 3039 3041 3041 3040 3040 3039 3037
3083 3085 3083 3083 3083 3084 3084 3085 3085 3081 3076 3077 3077 3073 3066 3062 3058 3052 3049 3046 3044 3043 3041 3040 3039 3038 3036 3032 3029 3029 3029 3029 3030 3030 3031 3032 3034 3035 3036 3033 3030 3032 3029 3031
3083 3084 3083 3083 3083 3085 3084 3085 3085 3083 3081 3081 3070 3067 3063 3060 3055 3050 3047 3043 3041 3040 3038 3037 3037 3037 3035 3032 3029 3027 3027 3027 3026 3024 3026 3027 3028 3028 3028 3026 3024 3025 3026 3023
3083 3085 3083 3083 3084 3084 3084 3084 3085 3083 3081 3072 3064 3063 3062 3058 3053 3048 3045 3043 3041 3040 3038 3037 3038 3037 3036 3034 3032 3030 3029 3027 3026 3024 3023 3025 3025 3025 3024 3024 3023 3024 3024 3022
3082 3084 3085 3084 3083 3084 3083 3082 3082 3083 3081 3077 3066 3060 3060 3056 3052 3048 3046 3045 3043 3041 3039 3040 3041 3040 3039 3037 3034 3032 3030 3028 3028 3027 3026 3026 3026 3025 3023 3022 3023 3022 3020 3017
3082 3082 3083 3084 3081 3081 3081 3082 3082 3081 3078 3076 3073 3064 3058 3056 3053 3050 3048 3047 3044 3043 3043 3044 3043 3041 3039 3038 3035 3033 3032 3031 3030 3028 3026 3025 3024 3022 3021 3020 3019 3017 3015 3013
3083 3083 3082 3081 3081 3078 3078 3078 3078 3078 3076 3072 3069 3060 3057 3055 3054 3052 3049 3048 3046 3046 3046 3046 3044 3042 3040 3038 3036 3035 3033 3031 3029 3028 3026 3025 3023 3022 3020 3019 3017 3014 3012 3010
3082 3081 3081 3080 3080 3078 3077 3075 3073 3074 3074 3069 3065 3061 3057 3055 3053 3052 3050 3049 3048 3047 3047 3046 3044 3042 3041 3039 3037 3035 3033 3031 3029 3026 3024 3022 3020 3018 3016 3014 3012 3010 3007 3005
3082 3080 3079 3076 3074 3073 3071 3070 3070 3067 3067 3067 3060 3058 3057 3054 3052 3051 3050 3049 3047 3047 3046 3045 3043 3042 3040 3038 3035 3033 3031 3028 3026 3024 3022 3019 3017 3015 3013 3010 3007 3004 3001 2998
3081 3079 3076 3071 3068 3067 3064 3063 3062 3061 3060 3057 3055 3051 3052 3051 3049 3048 3047 3046 3046 3045 3045 3043 3042 3040 3038 3035 3033 3031 3029 3027 3025 3022 3019 3016 3014 3011 3007 3004 3000 2996 2992 2989
3080 3078 3076 3069 3067 3064 3058 3051 3052 3053 3053 3053 3051 3051 3048 3048 3046 3046 3045 3044 3044 3043 3042 3041 3039 3037 3035 3033 3031 3029 3026 3023 3020 3017 3014 3010 3007 3003 2999 2995 2990 2986 2982 2978
3077 3076 3076 3069 3066 3062 3051 3049 3049 3049 3048 3047 3046 3046 3046 3045 3043 3043 3042 3041 3041 3040 3039 3037 3036 3034 3032 3030 3028 3025 3022 3018 3015 3012 3009 3005 3002 2997 2993 2989 2984 2980 2976 2971
3072 3073 3074 3069 3065 3054 3045 3044 3046 3046 3044 3042 3042 3043 3042 3040 3040 3039 3038 3038 3038 3036 3035 3034 3032 3030 3027 3025 3023 3020 3017 3014 3010 3007 3003 3000 2996 2992 2987 2981 2976 2971 2967 2963
3068 3069 3071 3069 3066 3053 3044 3044 3044 3043 3040 3038 3039 3039 3038 3037 3036 3037 3034 3034 3034 3032 3031 3029 3027 3025 3023 3021 3018 3015 3013 3010 3006 3002 2997 2993 2988 2983 2978 2974 2969 2964 2958 2954
3065 3065 3063 3065 3062 3048 3040 3041 3041 3042 3042 3036 3036 3035 3034 3033 3033 3031 3031 3030 3029 3028 3026 3024 3022 3020 3018 3016 3013 3009 3006 3003 2999 2995 2990 2985 2979 2974 2969 2965 2960 2954 2950 2944
3063 3061 3058 3057 3056 3043 3037 3037 3038 3036 3033 3031 3031 3030 3029 3029 3028 3027 3026 3025 3024 3023 3021 3020 3018 3015 3013 3010 3007 3004 3000 2997 2992 2987 2982 2978 2972 2966 2960 2954 2949 2944 2938 2933
3054 3052 3051 3048 3039 3035 3034 3033 3032 3029 3027 3025 3025 3024 3024 3023 3022 3020 3020 3019 3018 3017 3016 3013 3011 3008 3007 3004 3000 2998 2995 2990 2985 2980 2975 2969 2964 2958 2952 2946 2940 2935 2929 2924
3044 3045 3040 3038 3031 3030 3028 3027 3025 3023 3020 3018 3018 3017 3016 3016 3015 3014 3013 3012 3011 3010 3008 3006 3004 3003 3000 2998 2996 2992 2988 2983 2978 2973 2968 2962 2956 2951 2944 2938 2933 2927 2921 2915
3041 3035 3031 3024 3022 3023 3021 3018 3017 3014 3012 3011 3011 3010 3009 3007 3007 3007 3007 3006 3006 3004 3002 3000 2998 2997 2995 2992 2990 2986 2981 2976 2971 2966 2960 2955 2949 2943 2937 2932 2927 2921 2916 2908
3028 3027 3025 3021 3017 3015 3012 3011 3010 3008 3006 3004 3003 3002 3001 3000 3000 3000 3000 3000 2999 2998 2997 2995 2993 2991 2989 2986 2983 2979 2974 2969 2964 2958 2952 2946 2940 2935 2930 2925 2922 2916 2909 2903